Regional Weather Roundup
Issued by NWS

Home | Current Version | Previous Version | Graphics & Text | Print | Product List | Glossary On
Versions: 1 2 3 4 5 6 7 8 9 10 11 12 13 14 15 16 17 18 19 20 21 22 23 24 25 26 27 28 29 30 31 32 33 34 35 36 37 38 39 40 41 42 43 44 45 46 47 48 49 50
000
ASUS45 KBOU 281507
RWRCO

WEATHER ROUNDUP FOR COLORADO
NATIONAL WEATHER SERVICE DENVER/BOULDER CO
800 AM MST FRI NOV 28 2014

NOTE: "FAIR" INDICATES FEW OR NO CLOUDS BELOW 12000 FEET WITH NO
SIGNIFICANT WEATHER AND/OR OBSTRUCTIONS TO VISIBILITY.

COZ001>005-013-030-031-281600-
...NORTHWEST COLORADO...

CITY           SKY/WX    TMP DP  RH WIND       PRES   REMARKS
CRAIG          PTCLDY    24  19  81 SE5       30.16S WCI  18
HAYDEN         PTCLDY    23  18  80 E14       30.15F WCI  11
MEEKER         CLEAR     30  19  63 NE3       30.17F
MOUNT WERNER   NOT AVBL
STEAMBOAT SPGS CLOUDY    15  13  91 CALM      30.18S VSB<1/4
WALDEN         PTCLDY    36  12  38 SE14      30.14S
$$

COZ006>008-011-281600-
...WEST CENTRAL VALLEYS...

CITY           SKY/WX    TMP DP  RH WIND       PRES   REMARKS
GRAND JUNCTION CLEAR     27  23  85 E6        30.22S WCI  20
MONTROSE       CLEAR     27  19  72 S8        30.25S WCI  19
EAGLE          PTCLDY    23  21  93 CALM      30.25S
RIFLE          PTCLDY    26  23  88 CALM      30.24S
DELTA          CLEAR     27  22  83 CALM      30.24F
NUCLA          CLEAR     28  21  74 SE5       30.28F WCI  23
$$

COZ017>023-064>068-281600-
...SOUTHWEST COLORADO...

CITY           SKY/WX    TMP DP  RH WIND       PRES   REMARKS
DURANGO        CLEAR     25  20  81 CALM      30.29S
CORTEZ         CLEAR     22  16  78 E5        30.28R WCI  16
PAGOSA SPRINGS CLEAR     25  20  82 CALM      30.32S
TELLURIDE      PTCLDY    33   6  32 SE7       30.35S WCI  27
WOLF CREEK PAS   N/A    N/A N/A N/A MISG      30.40F
$$

COZ009-010-012-014-032>034-037-058>063-281600-
...CENTRAL COLORADO...

CITY           SKY/WX    TMP DP  RH WIND       PRES   REMARKS
ASPEN          CLEAR     28  16  60 S6        30.22S WCI  22
BUENA VISTA    CLEAR     48  -1  13 W14G20    30.17F
COPPER MTN     PTCLDY    34  -2  21 SW23G35   30.33R WCI  22
BERTHOUD PASS  NOT AVBL
COTTONWOOD PAS CLEAR     46 -15   7 W35G54    30.19S
GUNNISON       PTCLDY    10   7  85 CALM      30.38S
KREMMLING      CLEAR     19  16  86 CALM      30.21S
LEADVILLE      PTCLDY    30   4  33 NE7       30.25S WCI  23
MONARCH PASS   CLEAR     30   0  27 W44G49    30.43F WCI  13
SALIDA         CLEAR     49   4  15 SW17G23   30.22S
SUNLIGHT       CLEAR     30  18  59 CALM      30.31S
WILKERSON PASS PTCLDY    34  -4  19 W16G28    30.23F WCI  23
$$

COZ069>075-281600-
...SAN LUIS VALLEY/SANGRE DE CRISTO MOUNTAINS...

CITY           SKY/WX    TMP DP  RH WIND       PRES   REMARKS
ALAMOSA        PTCLDY    10   5  80 CALM      30.27S
LA VETA PASS   MOSUNNY   30  10  43 S15G26    30.22F WCI  19
SAGUACHE       PTCLDY    23  14  68 NW3       30.28S
$$

COZ035-036-038>040-281600-
...NORTHERN COLORADO FRONT RANGE...

CITY           SKY/WX    TMP DP  RH WIND       PRES   REMARKS
DENVER INTL AP CLOUDY    41  19  41 SE9       29.95S
DMNS CITY PARK   N/A     44  16  31 S10       29.96R
AURORA         MOCLDY    53  11  18 W9        29.97F
FRONT RANGE AP NOT AVBL
ERIE MUNI ARPT CLOUDY    61   6  11 SW12G20   29.93S
BOULDER MUN AP CLOUDY    54  14  20 E14G22    29.91S
CENTENNIAL     CLOUDY    49  14  24 S9        29.97F
BROOMFIELD     MOCLDY    48  12  23 E7        29.95
FORT COLLINS   MOCLDY    37  19  48 NE7       29.93S
LONGMONT       MOCLDY    64  10  12 W24G33    29.93F
$$

COZ041-046-047-076>085-087-088-281600-
...PIKES PEAK/PALMER DIVIDE AND SOUTHERN FOOTHILLS...

CITY           SKY/WX    TMP DP  RH WIND       PRES   REMARKS
COLO. SPRINGS  CLOUDY    43  14  31 NE9       30.04F
A. F. ACADEMY  CLOUDY    35  13  40 NE6       30.04F WCI  30
ELLICOTT       NOT AVBL
FALCON         NOT AVBL
FORT CARSON    CLOUDY    40  17  38 NW6       30.02F
LIMON          CLOUDY    35  21  56 N7        29.98F WCI  29
MONUMENT HILL  CLOUDY    46   9  21 SW9       30.03S
TRINIDAD       CLOUDY    39  19  44 W12       30.08S
$$

COZ042>045-048>051-090-091-281600-
...NORTHEAST COLORADO...

CITY           SKY/WX    TMP DP  RH WIND       PRES   REMARKS
GREELEY ARPT   MOCLDY    30  21  69 E3        29.94S
AKRON          CLOUDY    49  20  31 SW17      29.91S
BURLINGTON     PTSUNNY   44  20  38 W12       29.92F
WRAY           MOSUNNY   39  26  59 W8        29.89F
STERLING       CLOUDY    34  30  86 S3        29.91S
HOLYOKE        MOSUNNY   41  30  65 W13       29.87F
FORT MORGAN    CLOUDY    36  23  58 W12       29.94S
$$

COZ086-089-092>099-281600-
...SOUTHEAST COLORADO...

CITY           SKY/WX    TMP DP  RH WIND       PRES   REMARKS
PUEBLO         CLOUDY    34  21  59 W5        30.00F WCI  30
LA JUNTA       PTSUNNY   48  23  37 W13       29.98F
LAMAR          MOSUNNY   42  24  49 SW10      29.94F
SPRINGFIELD      N/A     57  15  19 SW13      29.97F
$$


USA.gov is the U.S. government's official web portal to all federal, state and local government web resources and services.